User: anonymous   Login
Location: Unspecified
(0.0000°N, 0.0000°E)
Time: 13:35:59
(UTC+00:00)
Language:

APRIZESAT 8 - Orbit

View from above orbital plane
View from above orbital plane
View from above satellite
View from above satellite

Ground track
Ground track

The orbit data is extracted from the following two-line orbital elements,

1 39425U 13066K   18347.63539146 +.00000043 +00000-0 +11985-4 0  9994
2 39425 097.5676 008.3940 0050488 283.4237 076.1352 14.81077923273214
Epoch (UTC): 13 December 2018 15:14:57
Eccentricity: 0.0050488
inclination: 97.5676°
perigee height: 590 km
apogee height: 661 km
right ascension of ascending node: 8.3940°
argument of perigee: 283.4237°
revolutions per day: 14.81077923
mean anomaly at epoch: 76.1352°
orbit number at epoch: 27321

The dashed part of the orbit path shows where the satellite is in the earth's shadow,  

DLR